Location: *
(51.2167°N, 10.0667°E)
Time: 19:36:36
(UTC+00:00)

Cosmos 1269 Rocket - Pass Details

Date: 12 December 2019
Orbit: 773 x 778 km, 74.1° (Epoch: 22 January)

Event Time Altitude Azimuth Distance (km) Brightness Sun altitude
Rises 15:49:38 0° 212° (SSW) 3,250 8.5 -5.7°
Reaches altitude 10° 15:52:02 10° 215° (SW) 2,326 7.7 -6.0°
Maximum altitude 15:57:17 65° 298° (WNW) 854 4.4 -6.8°
Drops below altitude 10° 16:02:34 10° 20° (NNE) 2,339 6.1 -7.5°
Enters shadow 16:04:30 - 23° (NNE) 3,077 6.7 -7.8°
